When you browse on this site, cookies collect data to enhance your experience and personalize the content and advertising you see.
Visit our Privacy Policy to learn more. By continuing to use the site, you agree to this use of cookies and data.
  • în România
  • Lista ţărilor
  • Pe 7 zile
  • Temperatura apei
  • Hartă satelitară
  • Meteo pe hartă
  • Widget-uri
  • user-avatar
    Intrare

    Meteo pe oră la Offenbach am Mein

    Astăzi, 22 Mai, Miercuri

    Timp Temperatura Precipitaţii Vânt Presiune Umiditate
    00:00 +13°C° 0 mm 2 m/s 752 mmHg 90%
    01:00 +12°C° 0 mm 2 m/s 752 mmHg 90%
    02:00 +12°C° 0.2 mm 2 m/s 752 mmHg 91%
    03:00 +12°C° 0.2 mm 2 m/s 752 mmHg 91%
    04:00 +12°C° 0.2 mm 2 m/s 752 mmHg 92%
    05:00 +12°C° 0.1 mm 2 m/s 753 mmHg 90%
    06:00 +13°C° 0.1 mm 2 m/s 753 mmHg 89%
    07:00 +12°C° 0.1 mm 3 m/s 753 mmHg 88%
    08:00 +13°C° 0 mm 3 m/s 754 mmHg 84%
    09:00 +13°C° 0 mm 3 m/s 754 mmHg 80%
    10:00 +14°C° 0 mm 3 m/s 754 mmHg 76%
    11:00 +16°C° 0 mm 3 m/s 754 mmHg 70%
    12:00 +17°C° 0 mm 3 m/s 754 mmHg 63%
    13:00 +18°C° 0 mm 3 m/s 754 mmHg 57%
    14:00 +18°C° 0 mm 3 m/s 754 mmHg 54%
    15:00 +19°C° 0 mm 3 m/s 754 mmHg 51%
    16:00 +19°C° 0 mm 2 m/s 754 mmHg 48%
    17:00 +19°C° 0 mm 2 m/s 754 mmHg 52%
    18:00 +18°C° 0 mm 2 m/s 754 mmHg 55%
    19:00 +17°C° 0 mm 2 m/s 754 mmHg 58%
    20:00 +16°C° 0 mm 1 m/s 754 mmHg 63%
    21:00 +15°C° 0 mm 1 m/s 755 mmHg 67%
    22:00 +12°C° 0 mm 0 m/s 755 mmHg 72%
    23:00 +12°C° 0 mm 0 m/s 755 mmHg 75%

    Mâine, 23 Mai, Joi

    Timp Temperatura Precipitaţii Vânt Presiune Umiditate
    00:00 +11°C° 0 mm 0 m/s 755 mmHg 77%
    01:00 +11°C° 0 mm 0 m/s 755 mmHg 80%
    02:00 +10°C° 0 mm 0 m/s 755 mmHg 81%
    03:00 +10°C° 0 mm 0 m/s 755 mmHg 82%
    04:00 +10°C° 0 mm 0 m/s 755 mmHg 83%
    05:00 +11°C° 0 mm 0 m/s 755 mmHg 79%
    06:00 +12°C° 0 mm 0 m/s 755 mmHg 75%
    07:00 +13°C° 0 mm 0 m/s 755 mmHg 71%
    08:00 +16°C° 0 mm 1 m/s 755 mmHg 65%
    09:00 +19°C° 0 mm 1 m/s 755 mmHg 59%
    10:00 +21°C° 0 mm 1 m/s 755 mmHg 53%
    11:00 +21°C° 0 mm 1 m/s 755 mmHg 50%
    12:00 +22°C° 0 mm 1 m/s 755 mmHg 47%
    13:00 +23°C° 0 mm 1 m/s 754 mmHg 45%
    14:00 +23°C° 0 mm 1 m/s 754 mmHg 45%
    15:00 +23°C° 0 mm 1 m/s 754 mmHg 45%
    16:00 +23°C° 0 mm 1 m/s 753 mmHg 46%
    17:00 +23°C° 0 mm 1 m/s 753 mmHg 50%
    18:00 +22°C° 0 mm 1 m/s 753 mmHg 55%
    19:00 +19°C° 0 mm 0 m/s 753 mmHg 60%
    20:00 +18°C° 0 mm 0 m/s 753 mmHg 63%
    21:00 +17°C° 0 mm 0 m/s 753 mmHg 66%
    22:00 +16°C° 0 mm 0 m/s 753 mmHg 69%
    23:00 +15°C° 0 mm 0 m/s 753 mmHg 72%

    Poimâine, 24 Mai, Vineri

    Timp Temperatura Precipitaţii Vânt Presiune Umiditate
    00:00 +14°C° 0 mm 0 m/s 753 mmHg 75%
    01:00 +13°C° 0 mm 0 m/s 753 mmHg 78%
    02:00 +13°C° 0 mm 0 m/s 753 mmHg 79%
    03:00 +13°C° 0 mm 0 m/s 753 mmHg 80%
    04:00 +12°C° 0 mm 0 m/s 753 mmHg 81%
    05:00 +13°C° 0 mm 0 m/s 753 mmHg 77%
    06:00 +15°C° 0 mm 1 m/s 753 mmHg 73%
    07:00 +16°C° 0 mm 1 m/s 753 mmHg 70%
    08:00 +19°C° 0 mm 1 m/s 753 mmHg 62%
    09:00 +20°C° 0 mm 1 m/s 753 mmHg 55%
    10:00 +21°C° 0 mm 2 m/s 753 mmHg 47%
    11:00 +23°C° 0 mm 2 m/s 752 mmHg 44%
    12:00 +23°C° 0 mm 2 m/s 752 mmHg 41%
    13:00 +24°C° 0 mm 2 m/s 752 mmHg 38%
    14:00 +24°C° 0 mm 2 m/s 752 mmHg 39%
    15:00 +24°C° 0 mm 2 m/s 751 mmHg 39%
    16:00 +25°C° 0 mm 2 m/s 751 mmHg 40%
    17:00 +23°C° 0 mm 2 m/s 751 mmHg 44%
    18:00 +21°C° 0 mm 2 m/s 751 mmHg 48%
    19:00 +20°C° 0 mm 2 m/s 751 mmHg 53%
    20:00 +19°C° 0 mm 2 m/s 751 mmHg 57%
    21:00 +18°C° 0 mm 2 m/s 751 mmHg 61%
    22:00 +16°C° 0 mm 2 m/s 752 mmHg 66%
    23:00 +16°C° 0 mm 2 m/s 752 mmHg 71%

    25 Mai, Sâmbătă

    Timp Temperatura Precipitaţii Vânt Presiune Umiditate
    00:00 +15°C° 0 mm 2 m/s 752 mmHg 76%
    01:00 +14°C° 0 mm 1 m/s 752 mmHg 82%
    02:00 +13°C° 0 mm 1 m/s 752 mmHg 83%
    03:00 +13°C° 0 mm 1 m/s 752 mmHg 83%
    04:00 +12°C° 0 mm 1 m/s 752 mmHg 84%
    05:00 +13°C° 0 mm 1 m/s 752 mmHg 79%
    06:00 +14°C° 0 mm 1 m/s 752 mmHg 75%
    07:00 +15°C° 0 mm 2 m/s 753 mmHg 70%
    08:00 +16°C° 0 mm 2 m/s 753 mmHg 63%
    09:00 +17°C° 0 mm 2 m/s 753 mmHg 56%
    10:00 +19°C° 0 mm 2 m/s 753 mmHg 48%
    11:00 +20°C° 0 mm 2 m/s 753 mmHg 45%
    12:00 +21°C° 0 mm 2 m/s 752 mmHg 42%
    13:00 +22°C° 0 mm 3 m/s 752 mmHg 39%
    14:00 +22°C° 0 mm 3 m/s 752 mmHg 40%
    15:00 +22°C° 0 mm 3 m/s 752 mmHg 40%
    16:00 +22°C° 0 mm 3 m/s 752 mmHg 41%
    17:00 +21°C° 0 mm 3 m/s 752 mmHg 44%
    18:00 +20°C° 0 mm 3 m/s 752 mmHg 48%
    19:00 +19°C° 0 mm 3 m/s 752 mmHg 52%
    20:00 +18°C° 0 mm 2 m/s 752 mmHg 57%
    21:00 +16°C° 0 mm 2 m/s 752 mmHg 62%
    22:00 +15°C° 0 mm 1 m/s 753 mmHg 66%
    23:00 +14°C° 0 mm 1 m/s 753 mmHg 69%

    26 Mai, Duminică

    Timp Temperatura Precipitaţii Vânt Presiune Umiditate
    00:00 +12°C° 0 mm 0 m/s 753 mmHg 72%
    01:00 +12°C° 0 mm 0 m/s 753 mmHg 76%
    02:00 +12°C° 0 mm 0 m/s 752 mmHg 75%
    03:00 +12°C° 0 mm 0 m/s 752 mmHg 74%
    04:00 +13°C° 0 mm 1 m/s 752 mmHg 74%
    05:00 +14°C° 0 mm 1 m/s 752 mmHg 71%
    06:00 +15°C° 0 mm 1 m/s 752 mmHg 69%
    07:00 +15°C° 0 mm 2 m/s 752 mmHg 66%
    08:00 +17°C° 0 mm 2 m/s 752 mmHg 63%
    09:00 +18°C° 0 mm 3 m/s 752 mmHg 61%
    10:00 +19°C° 0 mm 3 m/s 752 mmHg 58%
    11:00 +19°C° 0 mm 3 m/s 752 mmHg 58%
    12:00 +20°C° 0 mm 4 m/s 751 mmHg 58%
    13:00 +20°C° 0 mm 4 m/s 751 mmHg 59%
    14:00 +21°C° 0.1 mm 3 m/s 751 mmHg 61%
    15:00 +21°C° 0.1 mm 3 m/s 751 mmHg 64%
    16:00 +21°C° 0.1 mm 3 m/s 751 mmHg 66%
    17:00 +21°C° 0.3 mm 2 m/s 751 mmHg 69%
    18:00 +20°C° 0.3 mm 2 m/s 750 mmHg 73%
    19:00 +19°C° 0.3 mm 2 m/s 750 mmHg 76%
    20:00 +19°C° 0.1 mm 2 m/s 750 mmHg 80%
    21:00 +18°C° 0.1 mm 2 m/s 750 mmHg 83%
    22:00 +18°C° 0.1 mm 1 m/s 751 mmHg 86%
    23:00 +16°C° 0.1 mm 2 m/s 750 mmHg 88%

    27 Mai, Luni

    Timp Temperatura Precipitaţii Vânt Presiune Umiditate
    00:00 +16°C° 0.1 mm 2 m/s 750 mmHg 89%
    01:00 +16°C° 0.1 mm 2 m/s 750 mmHg 91%
    02:00 +15°C° 0.1 mm 2 m/s 750 mmHg 91%
    03:00 +15°C° 0.1 mm 2 m/s 749 mmHg 92%
    04:00 +14°C° 0.1 mm 3 m/s 749 mmHg 93%
    05:00 +16°C° 0 mm 3 m/s 749 mmHg 90%
    06:00 +16°C° 0 mm 3 m/s 749 mmHg 86%
    07:00 +17°C° 0 mm 4 m/s 749 mmHg 83%
    08:00 +17°C° 0.2 mm 3 m/s 749 mmHg 84%
    09:00 +17°C° 0.2 mm 3 m/s 749 mmHg 85%
    10:00 +17°C° 0.2 mm 3 m/s 749 mmHg 85%
    11:00 +16°C° 0.3 mm 3 m/s 749 mmHg 87%
    12:00 +16°C° 0.3 mm 2 m/s 749 mmHg 88%
    13:00 +16°C° 0.3 mm 2 m/s 749 mmHg 90%
    14:00 +18°C° 0 mm 2 m/s 749 mmHg 79%
    15:00 +20°C° 0 mm 2 m/s 748 mmHg 67%
    16:00 +23°C° 0 mm 2 m/s 748 mmHg 56%
    17:00 +21°C° 0 mm 2 m/s 748 mmHg 57%
    18:00 +20°C° 0 mm 2 m/s 748 mmHg 58%
    19:00 +20°C° 0 mm 2 m/s 748 mmHg 59%
    20:00 +18°C° 0 mm 2 m/s 748 mmHg 62%
    21:00 +16°C° 0 mm 2 m/s 749 mmHg 66%
    22:00 +15°C° 0 mm 1 m/s 749 mmHg 69%
    23:00 +14°C° 0 mm 1 m/s 749 mmHg 72%
    Arată mai mult